Frankfort, MI

3:36 AM EDT on May 25, 2018 (GMT -0400)
Frankfort

Weather History for KFKS - June, 2014

Change the Weather History Date:

Tuesday, June 3, 2014

  Actual Average (KMBL) Record (KMBL)
Temperature  
Mean Temperature 58 °F -  
Max Temperature 65 °F 70 °F 89 °F (1948)
Min Temperature 50 °F 46 °F 33 °F (2013)
Degree Days  
Heating Degree Days 8    
Growing Degree Days 8 (Base 50)    
Moisture  
Dew Point 50 °F    
Average Humidity 74    
Maximum Humidity 89    
Minimum Humidity 58    
Precipitation  
Precipitation 0.00 in - - ()
Sea Level Pressure  
Sea Level Pressure 29.80 in    
Wind  
Wind Speed 9 mph (WSW)    
Max Wind Speed 16 mph    
Max Gust Speed 29 mph    
Visibility 10 miles    
Events      
Averages and records for this station are not official NWS values.
T = Trace of Precipitation, MM = Missing Value Source: NWS Daily Summary

Daily Weather History Graph

Daily Weather History Graph

Search for Another Location

Airport or City:

Astronomy

Jun. 03, 2014 Rise Set
Actual Time 6:01 AM EDT 9:24 PM EDT
Civil Twilight 5:25 AM EDT 10:00 PM EDT
Nautical Twilight 4:38 AM EDT 10:48 PM EDT
Astronomical Twilight 3:38 AM EDT 11:48 PM EDT
Moon 11:33 AM EDT (6/3) 12:44 AM EDT (6/3)
Length of Visible Light 16h 35m
Length of Day
15h 22m
Waxing Crescent, 30% of the Moon is Illuminated
Jun 3
Waxing Crescent
Jun 5
First Quarter
Jun 13
Full
Jun 19
Last Quarter
Jun 27
New

Hourly Weather History & Observations

Time (EDT) Temp. Dew Point Humidity Pressure Visibility Wind Dir Wind Speed Gust Speed Precip Events Conditions
12:14 AM 65.7 °F 58.8 °F 79% 29.71 in 10.0 mi SSW 10.4 mph 17.3 mph N/A   Scattered Clouds
12:34 AM 64.8 °F 58.3 °F 79% 29.71 in 10.0 mi SSW 9.2 mph 18.4 mph N/A   Mostly Cloudy
1:14 AM 64.2 °F 57.7 °F 79% 29.70 in 10.0 mi SW 10.4 mph 21.9 mph N/A   Clear
1:35 AM 63.7 °F 57.7 °F 81% 29.69 in 10.0 mi SW 16.1 mph 24.2 mph N/A   Clear
1:55 AM 63.0 °F 57.2 °F 81% 29.69 in 10.0 mi SW 9.2 mph 24.2 mph N/A   Clear
2:15 AM 61.7 °F 57.0 °F 85% 29.68 in 10.0 mi SW 10.4 mph 24.2 mph N/A   Scattered Clouds
2:35 AM 62.4 °F 57.6 °F 84% 29.68 in 10.0 mi WSW 11.5 mph 21.9 mph N/A   Clear
2:55 AM 59.9 °F 55.8 °F 86% 29.68 in 10.0 mi SW 9.2 mph 21.9 mph N/A   Clear
3:16 AM 60.1 °F 55.2 °F 84% 29.68 in 10.0 mi SW 11.5 mph 18.4 mph N/A   Scattered Clouds
3:36 AM 57.6 °F 54.0 °F 88% 29.68 in 10.0 mi WSW 11.5 mph 26.5 mph N/A   Scattered Clouds
3:56 AM 58.3 °F 54.7 °F 88% 29.68 in 10.0 mi SW 12.7 mph 19.6 mph N/A   Clear
4:16 AM 59.5 °F 54.3 °F 83% 29.68 in 10.0 mi SW 10.4 mph 18.4 mph N/A   Clear
4:36 AM 59.2 °F 55.0 °F 86% 29.68 in 10.0 mi WSW 9.2 mph 16.1 mph N/A   Clear
4:56 AM 57.6 °F 54.3 °F 89% 29.68 in 10.0 mi SSW 9.2 mph 16.1 mph N/A   Scattered Clouds
5:11 AM 56.8 °F 53.2 °F 88% 29.68 in 10.0 mi SW 9.2 mph 17.3 mph N/A   Scattered Clouds
5:31 AM 54.7 °F 50.9 °F 87% 29.69 in 10.0 mi WSW 8.1 mph 16.1 mph N/A   Mostly Cloudy
5:52 AM 53.2 °F 50.2 °F 89% 29.69 in 10.0 mi WSW 9.2 mph - N/A   Mostly Cloudy
6:12 AM 54.0 °F 50.0 °F 86% 29.70 in 10.0 mi WSW 6.9 mph 18.4 mph N/A   Mostly Cloudy
6:32 AM 53.1 °F 49.3 °F 87% 29.70 in 10.0 mi WSW 6.9 mph 17.3 mph N/A   Overcast
6:52 AM 53.6 °F 49.6 °F 86% 29.71 in 10.0 mi WSW 9.2 mph - N/A   Overcast
7:12 AM 53.6 °F 48.9 °F 84% 29.72 in 10.0 mi WSW 9.2 mph 17.3 mph N/A   Overcast
7:32 AM 57.2 °F 49.3 °F 75% 29.73 in 10.0 mi WSW 12.7 mph 21.9 mph N/A   Overcast
7:53 AM 56.8 °F 48.4 °F 73% 29.73 in 10.0 mi WSW 11.5 mph 19.6 mph N/A   Overcast
8:13 AM 56.8 °F 48.2 °F 73% 29.74 in 10.0 mi West 11.5 mph 19.6 mph N/A   Overcast
8:33 AM 56.3 °F 47.5 °F 72% 29.75 in 10.0 mi WSW 12.7 mph 19.6 mph N/A   Overcast
8:53 AM 54.0 °F 46.0 °F 75% 29.77 in 10.0 mi WNW 11.5 mph 23.0 mph N/A   Overcast
9:13 AM 53.8 °F 47.8 °F 80% 29.77 in 10.0 mi WNW 11.5 mph 21.9 mph N/A   Overcast
9:34 AM 57.2 °F 49.3 °F 75% 29.78 in 10.0 mi WNW 12.7 mph 23.0 mph N/A   Overcast
9:54 AM 58.3 °F 49.5 °F 72% 29.79 in 10.0 mi WNW 8.1 mph 17.3 mph N/A   Scattered Clouds
10:14 AM 55.8 °F 48.2 °F 76% 29.81 in 10.0 mi WNW 12.7 mph 28.8 mph N/A   Mostly Cloudy
10:34 AM 53.2 °F 46.8 °F 79% 29.81 in 10.0 mi WNW 8.1 mph - N/A   Overcast
10:54 AM 57.2 °F 49.1 °F 74% 29.82 in 10.0 mi WNW 8.1 mph - N/A   Mostly Cloudy
11:14 AM 57.0 °F 48.0 °F 72% 29.83 in 10.0 mi WNW 9.2 mph - N/A   Mostly Cloudy
11:35 AM 54.1 °F 46.9 °F 77% 29.84 in 10.0 mi WNW 12.7 mph 21.9 mph N/A   Overcast
11:55 AM 58.6 °F 49.8 °F 72% 29.84 in 10.0 mi West 11.5 mph 17.3 mph N/A   Scattered Clouds
12:15 PM 59.9 °F 49.3 °F 68% 29.85 in 10.0 mi WNW 12.7 mph 18.4 mph N/A   Clear
12:35 PM 58.6 °F 47.8 °F 67% 29.86 in 10.0 mi West 11.5 mph - N/A   Clear
12:55 PM 59.2 °F 47.8 °F 66% 29.87 in 10.0 mi WNW 9.2 mph 16.1 mph N/A   Clear
1:15 PM 59.5 °F 48.2 °F 66% 29.88 in 10.0 mi NW 10.4 mph - N/A   Clear
1:36 PM 60.4 °F 48.6 °F 65% 29.89 in 10.0 mi WNW 9.2 mph - N/A   Clear
1:56 PM 61.0 °F 48.4 °F 63% 29.89 in 10.0 mi West 6.9 mph - N/A   Clear
2:16 PM 62.6 °F 48.7 °F 60% 29.89 in 10.0 mi WNW 6.9 mph - N/A   Clear
2:36 PM 60.4 °F 48.0 °F 64% 29.89 in 10.0 mi SW 6.9 mph - N/A   Clear
2:51 PM 59.5 °F 47.5 °F 64% 29.88 in 10.0 mi WSW 9.2 mph - N/A   Clear
3:11 PM 62.1 °F 49.3 °F 63% 29.88 in 10.0 mi WSW 8.1 mph - N/A   Mostly Cloudy
3:52 PM 62.1 °F 48.2 °F 60% 29.88 in 10.0 mi SW 9.2 mph - N/A   Scattered Clouds
4:12 PM 64.8 °F 49.6 °F 58% 29.87 in 10.0 mi WSW 10.4 mph - N/A   Clear
4:32 PM 64.6 °F 49.6 °F 58% 29.87 in 10.0 mi WSW 9.2 mph - N/A   Clear
4:52 PM 64.0 °F 49.8 °F 60% 29.88 in 10.0 mi SW 8.1 mph 17.3 mph N/A   Clear
5:12 PM 63.5 °F 49.5 °F 60% 29.88 in 10.0 mi SW 6.9 mph - N/A   Clear
5:32 PM 62.8 °F 49.3 °F 61% 29.88 in 10.0 mi SW 8.1 mph - N/A   Clear
5:53 PM 63.3 °F 50.0 °F 62% 29.87 in 10.0 mi SW 6.9 mph 16.1 mph N/A   Clear
6:13 PM 62.8 °F 49.5 °F 62% 29.86 in 10.0 mi WSW 6.9 mph - N/A   Clear
6:33 PM 63.1 °F 49.8 °F 62% 29.87 in 10.0 mi SW 4.6 mph - N/A   Clear
6:53 PM 63.1 °F 50.0 °F 62% 29.87 in 10.0 mi SW 8.1 mph - N/A   Clear
7:13 PM 61.0 °F 49.1 °F 65% 29.87 in 10.0 mi WSW 3.5 mph - N/A   Clear
7:33 PM 60.8 °F 49.1 °F 65% 29.87 in 10.0 mi Calm Calm - N/A   Clear
7:53 PM 58.3 °F 48.2 °F 69% 29.87 in 10.0 mi WNW 4.6 mph - N/A   Mostly Cloudy
8:13 PM 57.6 °F 48.2 °F 71% 29.87 in 10.0 mi Calm Calm - N/A   Mostly Cloudy
8:34 PM 58.5 °F 48.6 °F 70% 29.87 in 10.0 mi NW 3.5 mph - N/A   Mostly Cloudy
8:54 PM 57.9 °F 48.2 °F 70% 29.88 in 10.0 mi NW 4.6 mph - N/A   Mostly Cloudy
9:14 PM 55.8 °F 47.3 °F 73% 29.87 in 10.0 mi West 6.9 mph - N/A   Mostly Cloudy
9:34 PM 54.7 °F 46.4 °F 74% 29.88 in 10.0 mi WNW 4.6 mph - N/A   Overcast
10:14 PM 53.1 °F 45.7 °F 76% 29.89 in 10.0 mi West 5.8 mph - N/A   Overcast
10:34 PM 52.0 °F 45.1 °F 77% 29.89 in 10.0 mi WNW 3.5 mph - N/A   Overcast
11:14 PM 50.9 °F 45.1 °F 81% 29.89 in 10.0 mi NW 4.6 mph - N/A   Scattered Clouds
11:35 PM 50.7 °F 45.5 °F 82% 29.91 in 10.0 mi NW 5.8 mph - N/A   Clear
11:55 PM 50.5 °F 45.5 °F 83% 29.92 in 10.0 mi Calm Calm - N/A   Clear